{"data":{"norad_id":53832,"intl_designator":"2022-114Q","name":"STARLINK-4747","alt_names":[],"object_type":"PAYLOAD","status":"ACTIVE","operator":null,"country":"US","launch_date":"2022-09-19","launch_site_code":"AFETR","launch_vehicle":null,"mission":null,"orbit_class":"UNKNOWN","rcs_meters":null,"size_class":null,"mass_kg":null,"dimensions":null,"purposes":["comms"],"wikipedia_slug":null,"has_3d_model":false,"image_url":null,"decayed_at":null,"tle_current":{"epoch":"2026-09-20T08:29:24.611712Z","epoch_age_seconds":96738,"freshness":"FRESH","line1":"1 53832U 22114Q   26263.35375708  .00000732  00000+0  32817-4 0  9994","line2":"2 53832  53.1611 140.1434 0001614  86.1398 273.9789 15.34393782222358","mean_motion":15.34393782,"eccentricity":0.0001614,"inclination_deg":53.1611,"raan_deg":140.1434,"arg_perigee_deg":86.1398,"mean_anomaly_deg":273.9789,"bstar":3.2817e-5,"rev_number":22235,"period_min":93.848138391374,"perigee_km":461.61760687826,"apogee_km":463.82583607355,"semimajor_km":6840.8587214759,"source":"CELESTRAK","updated_at":"2026-09-21T09:00:33.000180Z"}}}